FW2611 Weather Reports


Display with metric or nautical units.
time (UTC)temp
F
wind
direction
speed
MPH
gust
MPH
rain 1hr
in
rain 24hr
in
rain mn
in
humidity
%
barometer
mb
20260503220017 61 321 5.0 16.0 0.00 0.00 0.00 29 1013.8
20260503214515 61 302 9.0 21.0 0.00 0.00 0.00 31 1013.6
20260503213027 61 298 10.0 20.0 0.00 0.00 0.00 31 1013.4
20260503211529 61 262 9.0 21.0 0.00 0.00 0.00 32 1013.3
20260503210017 60 300 15.0 24.0 0.00 0.00 0.00 31 1013.4
20260503204514 60 290 12.0 25.0 0.00 0.00 0.00 31 1013.5
20260503203024 60 280 9.0 19.0 0.00 0.00 0.00 31 1013.4
20260503201526 60 315 10.0 20.0 0.00 0.00 0.00 31 1013.5
20260503200027 59 265 6.0 21.0 0.00 0.00 0.00 31 1013.7
20260503194519 59 285 14.0 26.0 0.00 0.00 0.00 32 1013.4
20260503193015 59 293 10.0 23.0 0.00 0.00 0.00 33 1013.6
20260503191521 59 298 10.0 23.0 0.00 0.00 0.00 33 1013.7
20260503190025 58 300 12.0 21.0 0.00 0.00 0.00 33 1013.8
20260503184528 58 284 14.0 23.0 0.00 0.00 0.00 34 1013.9
20260503183015 58 257 8.0 21.0 0.00 0.00 0.00 33 1014.0
20260503181519 58 343 8.0 20.0 0.00 0.00 0.00 34 1014.0
20260503180009 58 280 9.0 23.0 0.00 0.00 0.00 34 1014.0
20260503174518 58 322 9.0 17.0 0.00 0.00 0.00 35 1013.9
20260503173013 57 310 12.0 20.0 0.00 0.00 0.00 34 1014.0
20260503171522 56 311 9.0 22.0 0.00 0.00 0.00 36 1014.1
20260503081538 47 275 6.0 13.0 0.00 0.00 0.00 65 1011.1
20260503071506 49 304 4.0 10.0 0.00 0.00 0.00 57 1010.6
20260503054522 52 321 7.0 13.0 0.00 0.00 0.00 51 1011.1
20260503053010 52 292 9.0 13.0 0.00 0.00 0.00 51 1011.1
20260503051513 52 293 5.0 14.0 0.00 0.00 0.00 51 1011.2
20260503050008 52 298 4.0 14.0 0.00 0.00 0.00 50 1011.3
20260503044512 52 321 6.0 12.0 0.00 0.00 0.00 51 1011.3
20260503043016 52 275 6.0 12.0 0.00 0.00 0.00 50 1011.6
20260503041524 52 281 6.0 12.0 0.00 0.00 0.00 51 1011.5
20260503040018 52 317 5.0 11.0 0.00 0.00 0.00 52 1011.7
20260503034518 52 286 5.0 10.0 0.00 0.00 0.00 51 1011.7
20260503033018 52 324 6.0 13.0 0.00 0.00 0.00 52 1011.6
20260503031518 52 304 5.0 11.0 0.00 0.00 0.00 53 1011.7
20260503030024 52 298 7.0 11.0 0.00 0.00 0.00 54 1011.6
20260503024519 52 312 5.0 10.0 0.00 0.00 0.00 57 1011.8
20260503023022 52 326 5.0 13.0 0.00 0.00 0.00 58 1011.8
20260503021518 51 322 2.0 5.0 0.00 0.00 0.00 78 1011.7
20260503020020 51 165 0.0 2.0 0.00 0.00 0.00 83 1011.7
20260503014520 51 165 0.0 2.0 0.00 0.00 0.00 82 1011.8
20260503011522 52 165 0.0 2.0 0.00 0.00 0.00 81 1011.7
20260503010021 52 165 0.0 4.0 0.00 0.00 0.00 81 1011.4
20260503004505 52 165 1.0 5.0 0.00 0.00 0.00 80 1011.7
20260503003006 53 153 1.0 4.0 0.00 0.00 0.00 80 1011.4
20260503001511 53 142 1.0 3.0 0.00 0.00 0.00 80 1011.1
20260503000019 54 146 2.0 6.0 0.00 0.00 0.00 80 1010.9
20260502234520 54 95 3.0 7.0 0.00 0.00 0.00 78 1010.9
20260502233003 55 146 1.0 7.0 0.00 0.00 0.00 78 1010.9
20260502231507 56 119 3.0 7.0 0.00 0.00 0.00 78 1011.1
20260502230012 57 126 4.0 8.0 0.00 0.00 0.00 75 1010.9
20260502224513 58 138 0.0 6.0 0.00 0.00 0.00 70 1010.9
20260502223022 58 163 0.0 4.0 0.00 0.00 0.00 69 1010.8
20260502221523 58 156 0.0 5.0 0.00 0.00 0.00 68 1010.7